| time (UTC) | temp F | wind direction | speed MPH | gust MPH | rain 1hr in | rain 24hr in | rain mn in | humidity % | barometer mb |
| 20260505003506 | 56 | 284 | 1.0 | 2.0 | 0.00 | 0.00 | 0.00 | 81 | 1010.7 |
| 20260505003006 | 56 | 285 | 1.0 | 2.0 | 0.00 | 0.00 | 0.00 | 81 | 1010.9 |
| 20260505002506 | 56 | 285 | 1.0 | 1.0 | 0.00 | 0.00 | 0.00 | 81 | 1010.9 |
| 20260505002006 | 56 | 286 | 1.0 | 2.0 | 0.00 | 0.00 | 0.00 | 81 | 1011.0 |
| 20260505001505 | 56 | 289 | 1.0 | 3.0 | 0.00 | 0.00 | 0.00 | 81 | 1011.0 |
| 20260505001006 | 56 | 250 | 1.0 | 2.0 | 0.00 | 0.00 | 0.00 | 80 | 1011.0 |
| 20260505000507 | 56 | 109 | 0.0 | 1.0 | 0.00 | 0.00 | 0.00 | 80 | 1011.1 |
| 20260505000005 | 56 | 109 | 0.0 | 2.0 | 0.00 | 0.00 | 0.00 | 79 | 1011.1 |
| 20260504235506 | 56 | 109 | 1.0 | 2.0 | 0.00 | 0.00 | 0.00 | 79 | 1011.2 |
| 20260504235006 | 56 | 355 | 2.0 | 3.0 | 0.00 | 0.00 | 0.00 | 80 | 1011.2 |
| 20260504234506 | 56 | 312 | 2.0 | 7.0 | 0.00 | 0.00 | 0.00 | 80 | 1011.3 |
| 20260504233505 | 56 | 315 | 2.0 | 3.0 | 0.00 | 0.00 | 0.00 | 79 | 1011.4 |
| 20260504233005 | 56 | 343 | 0.0 | 1.0 | 0.00 | 0.00 | 0.00 | 79 | 1011.4 |
| 20260504232506 | 57 | 13 | 0.0 | 2.0 | 0.00 | 0.00 | 0.00 | 79 | 1011.5 |
| 20260504232005 | 57 | 13 | 0.0 | 3.0 | 0.00 | 0.00 | 0.00 | 78 | 1011.5 |
| 20260504231506 | 57 | 351 | 2.0 | 6.0 | 0.00 | 0.00 | 0.00 | 78 | 1011.6 |
| 20260504231006 | 57 | 302 | 2.0 | 5.0 | 0.00 | 0.00 | 0.00 | 78 | 1011.5 |
| 20260504230005 | 57 | 229 | 1.0 | 2.0 | 0.00 | 0.00 | 0.00 | 77 | 1011.5 |
| 20260504225506 | 57 | 347 | 2.0 | 5.0 | 0.00 | 0.00 | 0.00 | 77 | 1011.6 |
| 20260504224505 | 57 | 338 | 3.0 | 8.0 | 0.00 | 0.00 | 0.00 | 77 | 1011.4 |
| 20260504224005 | 58 | 350 | 5.0 | 10.0 | 0.00 | 0.00 | 0.00 | 76 | 1011.5 |
| 20260504223505 | 58 | 329 | 6.0 | 10.0 | 0.00 | 0.00 | 0.00 | 76 | 1011.5 |
| 20260504223006 | 58 | 335 | 5.0 | 12.0 | 0.00 | 0.00 | 0.00 | 76 | 1011.5 |
| 20260504222507 | 58 | 1 | 3.0 | 9.0 | 0.00 | 0.00 | 0.00 | 76 | 1011.6 |
| 20260504222005 | 58 | 7 | 2.0 | 6.0 | 0.00 | 0.00 | 0.00 | 76 | 1011.7 |
| 20260504221506 | 58 | 351 | 5.0 | 10.0 | 0.00 | 0.00 | 0.00 | 76 | 1011.7 |
| 20260504221005 | 58 | 0 | 6.0 | 8.0 | 0.00 | 0.00 | 0.00 | 76 | 1011.7 |
| 20260504220506 | 58 | 358 | 3.0 | 6.0 | 0.00 | 0.00 | 0.00 | 75 | 1011.8 |
| 20260504215506 | 58 | 355 | 1.0 | 3.0 | 0.00 | 0.00 | 0.00 | 75 | 1012.0 |
| 20260504215005 | 59 | 341 | 3.0 | 8.0 | 0.00 | 0.00 | 0.00 | 75 | 1012.0 |
| 20260504214506 | 59 | 9 | 5.0 | 15.0 | 0.00 | 0.00 | 0.00 | 75 | 1011.9 |
| 20260504213505 | 58 | 339 | 5.0 | 12.0 | 0.00 | 0.00 | 0.00 | 75 | 1012.0 |
| 20260504213006 | 59 | 332 | 5.0 | 10.0 | 0.00 | 0.00 | 0.00 | 75 | 1012.0 |
| 20260504212506 | 59 | 334 | 3.0 | 9.0 | 0.00 | 0.00 | 0.00 | 75 | 1012.1 |
| 20260504212005 | 59 | 308 | 5.0 | 8.0 | 0.00 | 0.00 | 0.00 | 74 | 1012.1 |
| 20260504211509 | 59 | 328 | 4.0 | 8.0 | 0.00 | 0.00 | 0.00 | 74 | 1012.1 |
| 20260504211005 | 59 | 353 | 3.0 | 9.0 | 0.00 | 0.00 | 0.00 | 74 | 1012.1 |
| 20260504210506 | 59 | 348 | 3.0 | 8.0 | 0.00 | 0.00 | 0.00 | 74 | 1012.2 |
| 20260504210005 | 59 | 329 | 3.0 | 8.0 | 0.00 | 0.00 | 0.00 | 74 | 1012.2 |
| 20260504205506 | 59 | 324 | 3.0 | 5.0 | 0.00 | 0.00 | 0.00 | 73 | 1012.2 |
| 20260504205005 | 59 | 356 | 3.0 | 7.0 | 0.00 | 0.00 | 0.00 | 73 | 1012.2 |
| 20260504204505 | 59 | 325 | 2.0 | 5.0 | 0.00 | 0.00 | 0.00 | 73 | 1012.2 |
| 20260504204009 | 59 | 317 | 2.0 | 3.0 | 0.00 | 0.00 | 0.00 | 73 | 1012.2 |
| 20260504203505 | 59 | 312 | 3.0 | 5.0 | 0.00 | 0.00 | 0.00 | 73 | 1012.2 |
| 20260504203006 | 59 | 339 | 3.0 | 3.0 | 0.00 | 0.00 | 0.00 | 73 | 1012.2 |
| 20260504202506 | 59 | 330 | 2.0 | 5.0 | 0.00 | 0.00 | 0.00 | 73 | 1012.3 |
| 20260504202005 | 58 | 321 | 3.0 | 5.0 | 0.00 | 0.00 | 0.00 | 74 | 1012.3 |
| 20260504201006 | 58 | 292 | 1.0 | 3.0 | 0.00 | 0.00 | 0.00 | 74 | 1012.3 |
| 20260504200505 | 57 | 313 | 3.0 | 6.0 | 0.00 | 0.00 | 0.00 | 76 | 1012.2 |
| 20260504195504 | 58 | 274 | 1.0 | 1.0 | 0.00 | 0.00 | 0.00 | 75 | 1012.1 |
| 20260504195004 | 58 | 274 | 1.0 | 2.0 | 0.00 | 0.00 | 0.00 | 75 | 1012.1 |
| 20260504194504 | 58 | 274 | 1.0 | 2.0 | 0.00 | 0.00 | 0.00 | 75 | 1012.2 |
| 20260504194004 | 59 | 274 | 1.0 | 2.0 | 0.00 | 0.00 | 0.00 | 74 | 1012.2 |
| 20260504193005 | 59 | 274 | 1.0 | 1.0 | 0.00 | 0.00 | 0.00 | 73 | 1012.2 |
| 20260504192504 | 59 | 274 | 1.0 | 1.0 | 0.00 | 0.00 | 0.00 | 74 | 1012.1 |
| 20260504192004 | 59 | 274 | 1.0 | 2.0 | 0.00 | 0.00 | 0.00 | 74 | 1012.1 |
| 20260504191504 | 59 | 274 | 1.0 | 2.0 | 0.00 | 0.00 | 0.00 | 73 | 1012.1 |
| 20260504190504 | 59 | 274 | 1.0 | 2.0 | 0.00 | 0.00 | 0.00 | 72 | 1012.0 |
| 20260504190004 | 59 | 255 | 1.0 | 2.0 | 0.00 | 0.00 | 0.00 | 72 | 1012.0 |
| 20260504185504 | 59 | 248 | 0.0 | 2.0 | 0.00 | 0.00 | 0.00 | 73 | 1011.9 |
| 20260504185004 | 60 | 258 | 1.0 | 2.0 | 0.00 | 0.00 | 0.00 | 73 | 1011.9 |
| 20260504184504 | 60 | 291 | 0.0 | 0.0 | 0.00 | 0.00 | 0.00 | 72 | 1011.7 |
| 20260504184003 | 60 | 291 | 0.0 | 0.0 | 0.00 | 0.00 | 0.00 | 72 | 1011.7 |
| 20260504183504 | 60 | 18 | 0.0 | 0.0 | 0.00 | 0.00 | 0.00 | 71 | 1011.7 |
| 20260504183004 | 60 | 27 | 0.0 | 0.0 | 0.00 | 0.00 | 0.00 | 71 | 1011.7 |
| 20260504182504 | 61 | 27 | 0.0 | 0.0 | 0.00 | 0.00 | 0.00 | 69 | 1011.7 |
| 20260504181503 | 61 | 27 | 0.0 | 2.0 | 0.00 | 0.00 | 0.00 | 68 | 1011.6 |
| 20260504181003 | 62 | 27 | 1.0 | 2.0 | 0.00 | 0.00 | 0.00 | 68 | 1011.6 |
| 20260504180504 | 62 | 27 | 0.0 | 1.0 | 0.00 | 0.00 | 0.00 | 67 | 1011.6 |
| 20260504175004 | 63 | 27 | 0.0 | 2.0 | 0.00 | 0.00 | 0.00 | 66 | 1011.5 |
| 20260504174504 | 63 | 27 | 0.0 | 2.0 | 0.00 | 0.00 | 0.00 | 65 | 1011.5 |
| 20260504174004 | 63 | 27 | 0.0 | 1.0 | 0.00 | 0.00 | 0.00 | 64 | 1011.4 |
| 20260504173504 | 63 | 27 | 0.0 | 1.0 | 0.00 | 0.00 | 0.00 | 64 | 1011.5 |
| 20260504173005 | 64 | 27 | 1.0 | 2.0 | 0.00 | 0.00 | 0.00 | 64 | 1011.4 |
| 20260504172503 | 64 | 28 | 1.0 | 3.0 | 0.00 | 0.00 | 0.00 | 62 | 1011.4 |
| 20260504172004 | 64 | 22 | 1.0 | 3.0 | 0.00 | 0.00 | 0.00 | 62 | 1011.4 |
| 20260504171504 | 65 | 54 | 1.0 | 5.0 | 0.00 | 0.00 | 0.00 | 62 | 1011.4 |
| 20260504171004 | 65 | 18 | 2.0 | 3.0 | 0.00 | 0.00 | 0.00 | 61 | 1011.4 |
| 20260504170504 | 65 | 314 | 1.0 | 5.0 | 0.00 | 0.00 | 0.00 | 61 | 1011.4 |
| 20260504141003 | 68 | 211 | 1.0 | 2.0 | 0.00 | 0.00 | 0.00 | 58 | 1012.3 |
| 20260504140504 | 67 | 213 | 1.0 | 3.0 | 0.00 | 0.00 | 0.00 | 56 | 1012.3 |
| 20260504130506 | 67 | 332 | 1.0 | 2.0 | 0.00 | 0.00 | 0.00 | 60 | 1012.5 |
| 20260504110505 | 67 | 249 | 1.0 | 3.0 | 0.00 | 0.00 | 0.00 | 55 | 1012.8 |
| 20260504082005 | 64 | 246 | 3.0 | 7.0 | 0.00 | 0.00 | 0.00 | 58 | 1013.7 |
| 20260504081505 | 64 | 224 | 3.0 | 5.0 | 0.00 | 0.00 | 0.00 | 58 | 1013.7 |
| 20260504081005 | 64 | 257 | 2.0 | 5.0 | 0.00 | 0.00 | 0.00 | 58 | 1013.8 |
| 20260504080506 | 63 | 190 | 3.0 | 7.0 | 0.00 | 0.00 | 0.00 | 60 | 1013.8 |
| 20260504050505 | 53 | 240 | 0.0 | 0.0 | 0.00 | 0.01 | 0.00 | 72 | 1013.5 |
| 20260504045505 | 52 | 240 | 0.0 | 2.0 | 0.00 | 0.02 | 0.00 | 72 | 1013.5 |
| 20260504044505 | 51 | 240 | 1.0 | 2.0 | 0.00 | 0.02 | 0.00 | 71 | 1013.5 |
| 20260504044005 | 51 | 240 | 1.0 | 2.0 | 0.00 | 0.02 | 0.00 | 70 | 1013.3 |
| 20260504043505 | 51 | 240 | 1.0 | 2.0 | 0.00 | 0.02 | 0.00 | 69 | 1013.4 |
| 20260504043006 | 51 | 240 | 1.0 | 2.0 | 0.00 | 0.02 | 0.00 | 69 | 1013.4 |
| 20260504042504 | 51 | 240 | 1.0 | 2.0 | 0.00 | 0.02 | 0.00 | 69 | 1013.3 |
| 20260504042005 | 51 | 241 | 1.0 | 2.0 | 0.00 | 0.02 | 0.00 | 69 | 1013.3 |
| 20260504041006 | 50 | 215 | 1.0 | 2.0 | 0.00 | 0.02 | 0.00 | 70 | 1013.2 |
| 20260504040005 | 51 | 232 | 2.0 | 3.0 | 0.00 | 0.02 | 0.00 | 69 | 1013.3 |
| 20260504035505 | 51 | 232 | 2.0 | 3.0 | 0.00 | 0.02 | 0.00 | 69 | 1013.4 |
| 20260504035005 | 51 | 232 | 2.0 | 3.0 | 0.00 | 0.02 | 0.00 | 68 | 1013.3 |
| 20260504034505 | 51 | 229 | 1.0 | 2.0 | 0.00 | 0.02 | 0.00 | 68 | 1013.3 |
| 20260504034005 | 51 | 229 | 2.0 | 3.0 | 0.00 | 0.02 | 0.00 | 69 | 1013.4 |
| 20260504033506 | 50 | 235 | 2.0 | 3.0 | 0.00 | 0.02 | 0.00 | 69 | 1013.4 |
| 20260504033006 | 50 | 233 | 2.0 | 3.0 | 0.00 | 0.02 | 0.00 | 69 | 1013.4 |
| 20260504032505 | 50 | 232 | 1.0 | 3.0 | 0.00 | 0.02 | 0.00 | 69 | 1013.4 |
| 20260504032005 | 51 | 233 | 2.0 | 2.0 | 0.00 | 0.02 | 0.00 | 68 | 1013.5 |
| 20260504031005 | 51 | 233 | 1.0 | 3.0 | 0.00 | 0.02 | 0.00 | 68 | 1013.5 |
| 20260504030506 | 51 | 233 | 2.0 | 3.0 | 0.00 | 0.02 | 0.00 | 67 | 1013.5 |
| 20260504030005 | 50 | 234 | 2.0 | 2.0 | 0.00 | 0.02 | 0.00 | 69 | 1013.6 |
| 20260504025505 | 51 | 236 | 1.0 | 2.0 | 0.00 | 0.02 | 0.00 | 69 | 1013.5 |
| 20260504025005 | 50 | 236 | 1.0 | 2.0 | 0.00 | 0.02 | 0.00 | 69 | 1013.5 |
| 20260504024505 | 50 | 236 | 2.0 | 2.0 | 0.00 | 0.02 | 0.00 | 70 | 1013.6 |
| 20260504024005 | 51 | 235 | 1.0 | 2.0 | 0.00 | 0.02 | 0.00 | 69 | 1013.7 |
| 20260504023505 | 51 | 235 | 2.0 | 2.0 | 0.00 | 0.02 | 0.00 | 69 | 1013.6 |
| 20260504023006 | 52 | 235 | 1.0 | 2.0 | 0.00 | 0.02 | 0.00 | 67 | 1013.6 |
| 20260504022505 | 52 | 235 | 1.0 | 2.0 | 0.00 | 0.02 | 0.00 | 66 | 1013.6 |
| 20260504021505 | 52 | 235 | 1.0 | 3.0 | 0.00 | 0.02 | 0.00 | 67 | 1013.7 |
| 20260504021005 | 52 | 235 | 1.0 | 1.0 | 0.00 | 0.02 | 0.00 | 67 | 1013.5 |
| 20260504020005 | 52 | 235 | 1.0 | 1.0 | 0.00 | 0.02 | 0.00 | 67 | 1013.5 |
| 20260504015505 | 52 | 235 | 1.0 | 1.0 | 0.00 | 0.02 | 0.00 | 67 | 1013.5 |
| 20260504015005 | 51 | 235 | 1.0 | 2.0 | 0.00 | 0.02 | 0.00 | 70 | 1013.5 |
| 20260504014505 | 51 | 235 | 2.0 | 2.0 | 0.00 | 0.02 | 0.00 | 68 | 1013.5 |
| 20260504014005 | 53 | 235 | 2.0 | 2.0 | 0.00 | 0.02 | 0.00 | 66 | 1013.5 |
| 20260504013505 | 53 | 235 | 1.0 | 2.0 | 0.00 | 0.02 | 0.00 | 65 | 1013.5 |
| 20260504013006 | 53 | 235 | 2.0 | 2.0 | 0.00 | 0.02 | 0.00 | 65 | 1013.5 |
| 20260504012505 | 53 | 235 | 1.0 | 2.0 | 0.00 | 0.02 | 0.00 | 65 | 1013.5 |
| 20260504011505 | 53 | 235 | 1.0 | 2.0 | 0.00 | 0.02 | 0.00 | 65 | 1013.4 |
| 20260504011005 | 53 | 235 | 1.0 | 1.0 | 0.00 | 0.02 | 0.00 | 65 | 1013.4 |
| 20260504010505 | 54 | 235 | 1.0 | 3.0 | 0.00 | 0.02 | 0.00 | 64 | 1013.5 |
| 20260504010005 | 54 | 266 | 1.0 | 2.0 | 0.00 | 0.02 | 0.00 | 64 | 1013.5 |
| 20260504005505 | 55 | 266 | 1.0 | 2.0 | 0.00 | 0.02 | 0.00 | 62 | 1013.4 |
| 20260504004005 | 56 | 269 | 1.0 | 1.0 | 0.00 | 0.02 | 0.00 | 62 | 1013.5 |